* Astronomy

Members Login
Username 
 
Password 
    Remember Me  
Post Info TOPIC: Asteroid 2010 QN1


L

Posts: 131433
Date:
Asteroid 2010 QN1
Permalink  
 


Orbital elements:
2010 QN1 Earth MOID = 0.2263 AU
Epoch 2010 July 23.0 TT = JDT 2455400.5 MPC
M 265.08630 (2000.0) P Q
n 0.80751302 Peri. 318.14502 -0.18484602 -0.93582430
a 1.1420971 Node 139.65025 +0.97888263 -0.20244614
e 0.4486456 Incl. 27.61460 +0.08729693 +0.28852806
P 1.22 H 20.2 G 0.15 U 8

MPEC 2010 - Q22


__________________
Page 1 of 1  sorted by
 
Quick Reply

Please log in to post quick replies.



Create your own FREE Forum
Report Abuse
Powered by ActiveBoard